Volver al catálogo

STARLINK-2285

ActivoComunicacionesVLEO
NORAD 48019·PAYLOAD·🇺🇸 United States

Lanzado Mar 24, 2021 desde Cape Canaveral Space Force Station

Loading…

Próximos Pases (próximas 24 horas)

TLE

ActualizadoSource: CelesTrak SupGP

Época: Sep 15, 2026, 01:55 UTC

1 48019C 21024AU  26258.08034722  .00038855  00000+0  12494-2 0  2588
2 48019  53.1582 145.4905 0001306  80.9617 236.2732 15.31683722    11

Sigue STARLINK-2285 en tiempo real con AllMySat

Download on the App Store